Volver al catálogo

STARLINK-37097

ActivoComunicacionesVLEO
NORAD 68238·PAYLOAD·🇺🇸 United States

Lanzado Mar 17, 2026 desde Vandenberg Space Force Base

Loading…

Próximos Pases (próximas 24 horas)

TLE

ActualizadoSource: CelesTrak SupGP

Época: Sep 14, 2026, 22:58 UTC

1 68238C 26054G   26257.95743056  .00012364  00000+0  36555-3 0  2574
2 68238  53.1577 127.5624 0001503  65.1761 241.0473 15.34362998    11

Sigue STARLINK-37097 en tiempo real con AllMySat

Download on the App Store